Location: Lac Lasalle
(46.0398°N, 74.1576°W)
Time: 07:13:25
(UTC-05:00)

PCSat - Pass Details

Date: 11 December 2019
Orbit: 785 x 794 km, 67.1° (Epoch: 20 January)

Event Time Altitude Azimuth Distance (km) Brightness Sun altitude
Rises 16:40:03 0° 279° (W) 3,289 13.7 -5.2°
Reaches altitude 10° 16:43:59 10° 307° (NW) 2,365 12.4 -5.8°
Maximum altitude 16:46:22 13° 334° (NNW) 2,172 11.9 -6.1°
Drops below altitude 10° 16:48:47 10° 0° (N) 2,370 11.8 -6.5°
Enters shadow 16:52:17 - 26° (NNE) 3,170 12.2 -7.0°
